Simultaneous Nadir Overpasses (SNOs) Predictions

Prediction of SNOs between GOES-16 and NOAA-19 Satellite Orbit:

Table of predicted SNOs for the next 14.0 days since TLE Epoch: 11/1/2019
Index Date Time (GOES-16) GOES-16 Lat,Lon NOAA-19 Lat,Lon Distance(km) Time Diff (sec)
1 11/01/2019 22:02:13 -0.01, -75.19 0.88, -71.26 448.37 14
2 11/03/2019 10:36:28 0.00, -75.20 0.93, -79.08 443.52 80
3 11/04/2019 10:24:49 0.00, -75.20 0.25, -76.24 118.51 80
4 11/05/2019 10:10:31 0.00, -75.20 -0.42, -73.40 206.72 80
5 11/07/2019 22:34:19 0.00, -75.22 -0.73, -78.39 362.18 80
6 11/08/2019 22:22:39 0.00, -75.23 -0.09, -75.54 36.25 80
7 11/09/2019 22:08:21 0.00, -75.24 0.61, -72.71 289.95 80
8 11/12/2019 10:32:03 -0.00, -75.28 0.58, -77.68 274.68 80
9 11/13/2019 10:17:45 -0.00, -75.29 -0.11, -74.84 51.61 80
10 11/14/2019 10:08:47 0.00, -75.31 -0.79, -72.00 377.99 80




NCC Satellite Simultaneous Nadir Overpasses (SNOs) Prediction Service
